Johnstown, PA

6:14 AM EDT on August 20, 2017 (GMT -0400)
Johnstown-Cambria County

Weather History for KJST - June, 2014

Change the Weather History Date:

Saturday, June 21, 2014

  Actual Average Record
Temperature  
Mean Temperature 60 °F 66 °F  
Max Temperature 64 °F 75 °F 98 °F (1933)
Min Temperature 55 °F 57 °F 41 °F (1968)
Degree Days  
Heating Degree Days 5 2  
Month to date heating degree days 39 70  
Since 1 June heating degree days 39 70  
Since 1 July heating degree days 7252 6679  
Cooling Degree Days 0 3  
Month to date cooling degree days 38 43  
Year to date cooling degree days 64 67  
Since 1 June cooling degree days 38 43  
Growing Degree Days 9 (Base 50)    
Moisture  
Dew Point 57 °F    
Average Humidity 92    
Maximum Humidity 100    
Minimum Humidity 84    
Precipitation  
Precipitation 0.26 in 0.12 in 2.47 in (1929)
Month to date precipitation 4.67 2.97  
Year to date precipitation 18.23 19.61  
Sea Level Pressure  
Sea Level Pressure 29.95 in    
Wind  
Wind Speed 3 mph (East)    
Max Wind Speed 10 mph    
Max Gust Speed 17 mph    
Visibility 6 miles    
Events Fog , Rain    
T = Trace of Precipitation, MM = Missing Value Source: NWS Daily Summary

Daily Weather History Graph

Daily Weather History Graph

Search for Another Location

Airport or City:

Trip Planner

Search our weather history database for the weather conditions in past years. The results will help you decide how hot, cold, wet, or windy it might be!

Date:

Astronomy

Jun. 21, 2014 Rise Set
Actual Time 5:45 AM EDT 8:48 PM EDT
Civil Twilight 5:12 AM EDT 9:21 PM EDT
Nautical Twilight 4:30 AM EDT 10:03 PM EDT
Astronomical Twilight 3:40 AM EDT 10:53 PM EDT
Moon 1:58 AM EDT (6/21) 3:24 PM EDT (6/21)
Length of Visible Light 16h 09m
Length of Day
15h 03m
Waning Crescent, 30% of the Moon is Illuminated
Jun 21
Waning Crescent
Jun 27
New
Jul 5
First Quarter
Jul 12
Full
Jul 18
Last Quarter

Hourly Weather History & Observations

Time (EDT) Temp. Dew Point Humidity Pressure Visibility Wind Dir Wind Speed Gust Speed Precip Events Conditions
1:20 AM 63.0 °F 57.9 °F 84% 29.98 in 10.0 mi ENE 3.5 mph - 0.00 in Rain Light Rain
1:47 AM 62.1 °F 57.9 °F 86% 29.98 in 6.0 mi Calm Calm - 0.01 in Rain Light Rain
1:54 AM 62.1 °F 57.9 °F 86% 29.94 in 9.0 mi ESE 3.5 mph - 0.01 in Rain Light Rain
2:29 AM 61.0 °F 59.0 °F 93% 29.97 in 4.0 mi ENE 3.5 mph - 0.03 in Rain Light Rain
2:54 AM 60.1 °F 59.0 °F 96% 29.92 in 5.0 mi East 4.6 mph - 0.04 in   Overcast
3:37 AM 60.1 °F 59.0 °F 96% 29.95 in 4.0 mi ENE 5.8 mph - 0.01 in Rain Light Rain
3:49 AM 60.8 °F 59.0 °F 94% 29.95 in 1.8 mi ENE 5.8 mph - 0.06 in Rain Heavy Rain
3:54 AM 60.1 °F 59.0 °F 96% 29.92 in 1.5 mi ENE 6.9 mph - 0.08 in Rain Heavy Rain
4:11 AM 60.1 °F 57.9 °F 93% 29.96 in 3.0 mi NE 4.6 mph - 0.03 in Rain Light Rain
4:18 AM 60.1 °F 59.0 °F 96% 29.95 in 2.5 mi ENE 5.8 mph - 0.05 in Rain Rain
4:30 AM 59.0 °F 57.9 °F 96% 29.95 in 3.0 mi East 6.9 mph - 0.06 in Rain Light Rain
4:38 AM 59.0 °F 57.9 °F 96% 29.95 in 4.0 mi ENE 5.8 mph - 0.06 in Rain Light Rain
4:54 AM 59.0 °F 57.9 °F 96% 29.91 in 2.5 mi East 8.1 mph - 0.06 in Rain Light Rain
5:00 AM 59.0 °F 57.9 °F 96% 29.95 in 1.8 mi East 5.8 mph - 0.01 in Rain Rain
5:11 AM 59.0 °F 57.9 °F 96% 29.95 in 3.0 mi ENE 5.8 mph - 0.02 in Rain Light Rain
5:27 AM 59.0 °F 57.9 °F 96% 29.95 in 7.0 mi East 6.9 mph - 0.02 in Rain Light Rain
5:34 AM 59.0 °F 57.0 °F 93% 29.95 in 8.0 mi ESE 9.2 mph 16.1 mph 0.02 in Rain Light Rain
5:54 AM 57.9 °F 55.9 °F 93% 29.92 in 8.0 mi East 8.1 mph - 0.02 in   Overcast
6:54 AM 57.0 °F 55.9 °F 96% 29.93 in 10.0 mi ESE 5.8 mph - N/A   Overcast
7:20 AM 57.0 °F 55.9 °F 96% 29.96 in 9.0 mi East 3.5 mph - 0.00 in Rain Light Rain
7:54 AM 57.0 °F 55.9 °F 96% 29.94 in 10.0 mi East 3.5 mph - 0.01 in Rain Light Rain
8:27 AM 57.0 °F 55.9 °F 96% 29.97 in 2.5 mi East 3.5 mph - 0.00 in Rain Light Rain
8:30 AM 57.0 °F 55.9 °F 96% 29.97 in 1.8 mi ESE 3.5 mph - 0.00 in Rain Light Rain
8:54 AM 57.0 °F 55.9 °F 96% 29.96 in 1.5 mi Calm Calm - 0.01 in Rain Light Rain
9:28 AM 57.0 °F 55.9 °F 96% 29.98 in 1.5 mi Variable 3.5 mph - 0.02 in Rain Light Rain
9:54 AM 55.9 °F 55.0 °F 97% 29.96 in 1.8 mi East 5.8 mph - 0.02 in Rain Light Rain
10:32 AM 55.0 °F 54.0 °F 96% 29.98 in 1.5 mi East 5.8 mph - 0.00 in   Overcast
10:38 AM 55.0 °F 54.0 °F 96% 29.98 in 2.0 mi East 4.6 mph - 0.00 in   Overcast
10:45 AM 55.0 °F 54.0 °F 96% 29.97 in 3.0 mi East 6.9 mph - 0.00 in   Overcast
10:54 AM 55.9 °F 54.0 °F 93% 29.96 in 6.0 mi East 4.6 mph - 0.00 in   Overcast
11:54 AM 55.9 °F 54.0 °F 93% 29.96 in 6.0 mi East 3.5 mph - 0.01 in Rain Light Rain
12:25 PM 57.0 °F 55.0 °F 93% 29.97 in 5.0 mi Calm Calm - 0.00 in   Overcast
12:54 PM 57.9 °F 55.0 °F 90% 29.95 in 9.0 mi SSE 5.8 mph - 0.00 in   Overcast
1:54 PM 59.0 °F 55.9 °F 90% 29.94 in 7.0 mi Calm Calm - N/A   Overcast
2:54 PM 60.1 °F 57.0 °F 90% 29.94 in 7.0 mi ENE 3.5 mph - N/A   Overcast
3:54 PM 62.1 °F 57.9 °F 86% 29.93 in 8.0 mi Calm Calm - N/A   Overcast
4:54 PM 63.0 °F 57.9 °F 84% 29.92 in 10.0 mi NNE 4.6 mph - N/A   Overcast
5:47 PM 63.0 °F 57.9 °F 84% 29.94 in 10.0 mi Variable 4.6 mph - N/A   Overcast
5:54 PM 63.0 °F 57.9 °F 84% 29.93 in 10.0 mi Calm Calm - N/A   Overcast
6:54 PM 63.0 °F 57.9 °F 84% 29.93 in 10.0 mi Calm Calm - N/A   Overcast
7:52 PM 62.6 °F 57.2 °F 82% 29.94 in 10.0 mi Calm Calm - N/A   Scattered Clouds
7:54 PM 63.0 °F 57.9 °F 84% 29.93 in 10.0 mi Calm Calm - N/A   Partly Cloudy
8:54 PM 61.0 °F 57.9 °F 90% 29.93 in 8.0 mi Calm Calm - N/A   Partly Cloudy
9:54 PM 59.0 °F 57.0 °F 93% 29.95 in 8.0 mi SSE 3.5 mph - N/A   Mostly Cloudy
10:54 PM 59.0 °F 55.9 °F 90% 29.95 in 10.0 mi SSE 3.5 mph - N/A   Overcast
11:54 PM 57.0 °F 55.9 °F 96% 29.98 in 3.0 mi WSW 5.8 mph - N/A   Partly Cloudy
11:56 PM 55.9 °F 55.0 °F 97% 29.98 in 1.0 mi WSW 4.6 mph - N/A   Mist
11:59 PM 55.9 °F 55.0 °F 97% 29.98 in 0.2 mi WSW 3.5 mph - N/A Fog Fog